owner,sensor,date,latitude,longitude,air_pressure(mBar),qcFlag 
TABS,ioos:station:wmo:42045:1,2003-03-01T00:10:00Z,26.2168,-96.4998,1001.79,11111222 
TABS,ioos:station:wmo:42045:1,2003-03-01T00:40:00Z,26.2168,-96.4998,1001.92,11111222 
TABS,ioos:station:wmo:42045:1,2003-03-01T01:10:00Z,26.2168,-96.4998,1002.81,11111222 
TABS,ioos:station:wmo:42045:1,2003-03-01T01:40:00Z,26.2168,-96.4998,1003.89,11111222 
TABS,ioos:station:wmo:42045:1,2003-03-01T02:10:00Z,26.2168,-96.4998,1004.65,11111222 
TABS,ioos:station:wmo:42045:1,2003-03-01T02:40:00Z,26.2168,-96.4998,1005.6,11111222 
TABS,ioos:station:wmo:42045:1,2003-03-01T03:10:00Z,26.2168,-96.4998,1006.55,11111222 
TABS,ioos:station:wmo:42045:1,2003-03-01T03:40:00Z,26.2168,-96.4998,1007.38,11111222 
TABS,ioos:station:wmo:42045:1,2003-03-01T04:10:00Z,26.2168,-96.4998,1007.63,11111222 
TABS,ioos:station:wmo:42045:1,2003-03-01T04:40:00Z,26.2168,-96.4998,1008.46,11111222 
TABS,ioos:station:wmo:42045:1,2003-03-01T05:10:00Z,26.2168,-96.4998,1008.9,11111222 
TABS,ioos:station:wmo:42045:1,2003-03-01T05:40:00Z,26.2168,-96.4998,1009.22,11111222 
TABS,ioos:station:wmo:42045:1,2003-03-01T06:10:00Z,26.2168,-96.4998,1009.6,11111222 
TABS,ioos:station:wmo:42045:1,2003-03-01T06:40:00Z,26.2168,-96.4998,1010.04,11111222 
TABS,ioos:station:wmo:42045:1,2003-03-01T07:10:00Z,26.2168,-96.4998,1010.17,11111222 
TABS,ioos:station:wmo:42045:1,2003-03-01T07:40:00Z,26.2168,-96.4998,1010.3,11111222 
TABS,ioos:station:wmo:42045:1,2003-03-01T08:10:00Z,26.2168,-96.4998,1010.55,11111222 
TABS,ioos:station:wmo:42045:1,2003-03-01T08:40:00Z,26.2168,-96.4998,1010.42,11111222 
TABS,ioos:station:wmo:42045:1,2003-03-01T09:10:00Z,26.2168,-96.4998,1010.42,11111222 
TABS,ioos:station:wmo:42045:1,2003-03-01T09:40:00Z,26.2168,-96.4998,1010.23,11111222 
TABS,ioos:station:wmo:42045:1,2003-03-01T10:10:00Z,26.2168,-96.4998,1010.11,11111222 
TABS,ioos:station:wmo:42045:1,2003-03-01T10:40:00Z,26.2168,-96.4998,1010.11,11111222 
TABS,ioos:station:wmo:42045:1,2003-03-01T11:10:00Z,26.2168,-96.4998,1010.17,11111222 
TABS,ioos:station:wmo:42045:1,2003-03-01T11:40:00Z,26.2168,-96.4998,1009.79,11111222 
TABS,ioos:station:wmo:42045:1,2003-03-01T12:10:00Z,26.2168,-96.4998,1009.6,11111222 
TABS,ioos:station:wmo:42045:1,2003-03-01T12:40:00Z,26.2168,-96.4998,1009.6,11111222 
TABS,ioos:station:wmo:42045:1,2003-03-01T13:10:00Z,26.2168,-96.4998,1010.3,11111222 
TABS,ioos:station:wmo:42045:1,2003-03-01T13:40:00Z,26.2168,-96.4998,1011.38,11111222 
TABS,ioos:station:wmo:42045:1,2003-03-01T14:10:00Z,26.2168,-96.4998,1012.9,11111222 
TABS,ioos:station:wmo:42045:1,2003-03-01T14:40:00Z,26.2168,-96.4998,1016.52,11111222 
TABS,ioos:station:wmo:42045:1,2003-03-01T15:10:00Z,26.2168,-96.4998,1017.15,11111222 
TABS,ioos:station:wmo:42045:1,2003-03-01T15:40:00Z,26.2168,-96.4998,1016.77,11111222 
TABS,ioos:station:wmo:42045:1,2003-03-01T16:10:00Z,26.2168,-96.4998,1016.96,11111222 
TABS,ioos:station:wmo:42045:1,2003-03-01T16:40:00Z,26.2168,-96.4998,1019.88,11111222 
TABS,ioos:station:wmo:42045:1,2003-03-01T17:10:00Z,26.2168,-96.4998,1017.66,11111222 
TABS,ioos:station:wmo:42045:1,2003-03-01T17:40:00Z,26.2168,-96.4998,1018.74,11111222 
TABS,ioos:station:wmo:42045:1,2003-03-01T18:10:00Z,26.2168,-96.4998,1020.14,11111222 
TABS,ioos:station:wmo:42045:1,2003-03-01T18:40:00Z,26.2168,-96.4998,1028.64,11111222 
TABS,ioos:station:wmo:42045:1,2003-03-01T19:10:00Z,26.2168,-96.4998,1035.31,11111222 
TABS,ioos:station:wmo:42045:1,2003-03-01T19:40:00Z,26.2168,-96.4998,1012.77,11111222 
TABS,ioos:station:wmo:42045:1,2003-03-01T20:10:00Z,26.2168,-96.4998,1011.12,11111222 
TABS,ioos:station:wmo:42045:1,2003-03-01T20:40:00Z,26.2168,-96.4998,1012.52,11111222 
TABS,ioos:station:wmo:42045:1,2003-03-01T21:10:00Z,26.2168,-96.4998,1028.64,11111222 
TABS,ioos:station:wmo:42045:1,2003-03-01T21:40:00Z,26.2168,-96.4998,1009.92,11111222 
TABS,ioos:station:wmo:42045:1,2003-03-01T22:10:00Z,26.2168,-96.4998,1008.08,11111222 
TABS,ioos:station:wmo:42045:1,2003-03-01T22:40:00Z,26.2168,-96.4998,1008.46,11111222 
TABS,ioos:station:wmo:42045:1,2003-03-01T23:10:00Z,26.2168,-96.4998,1000.71,11111222 
TABS,ioos:station:wmo:42045:1,2003-03-01T23:40:00Z,26.2168,-96.4998,996.9,11111222 
TABS,ioos:station:wmo:42045:1,2003-03-02T00:10:00Z,26.2168,-96.4998,994.81,11111222 
TABS,ioos:station:wmo:42045:1,2003-03-02T00:40:00Z,26.2168,-96.4998,993.29,11111222 
TABS,ioos:station:wmo:42045:1,2003-03-02T01:10:00Z,26.2168,-96.4998,993.67,11111222 
TABS,ioos:station:wmo:42045:1,2003-03-02T01:40:00Z,26.2168,-96.4998,994.94,11111222 
TABS,ioos:station:wmo:42045:1,2003-03-02T02:10:00Z,26.2168,-96.4998,996.71,11111222 
TABS,ioos:station:wmo:42045:1,2003-03-02T02:40:00Z,26.2168,-96.4998,998.49,11111222 
TABS,ioos:station:wmo:42045:1,2003-03-02T03:10:00Z,26.2168,-96.4998,999.7,11111222 
TABS,ioos:station:wmo:42045:1,2003-03-02T03:40:00Z,26.2168,-96.4998,1000.71,11111222 
TABS,ioos:station:wmo:42045:1,2003-03-02T04:10:00Z,26.2168,-96.4998,1001.73,11111222 
TABS,ioos:station:wmo:42045:1,2003-03-02T04:40:00Z,26.2168,-96.4998,1002.17,11111222 
TABS,ioos:station:wmo:42045:1,2003-03-02T05:10:00Z,26.2168,-96.4998,1003.19,11111222 
TABS,ioos:station:wmo:42045:1,2003-03-02T05:40:00Z,26.2168,-96.4998,1003.19,11111222 
TABS,ioos:station:wmo:42045:1,2003-03-02T06:10:00Z,26.2168,-96.4998,1004.14,11111222 
TABS,ioos:station:wmo:42045:1,2003-03-02T06:40:00Z,26.2168,-96.4998,1005.28,11111222 
TABS,ioos:station:wmo:42045:1,2003-03-02T07:10:00Z,26.2168,-96.4998,1005.66,11111222 
TABS,ioos:station:wmo:42045:1,2003-03-02T07:40:00Z,26.2168,-96.4998,1006.17,11111222 
TABS,ioos:station:wmo:42045:1,2003-03-02T08:10:00Z,26.2168,-96.4998,1006.87,11111222 
TABS,ioos:station:wmo:42045:1,2003-03-02T08:40:00Z,26.2168,-96.4998,1007.38,11111222 
TABS,ioos:station:wmo:42045:1,2003-03-02T09:10:00Z,26.2168,-96.4998,1007.31,11111222 
TABS,ioos:station:wmo:42045:1,2003-03-02T09:40:00Z,26.2168,-96.4998,1007.7,11111222 
TABS,ioos:station:wmo:42045:1,2003-03-02T10:10:00Z,26.2168,-96.4998,1007.76,11111222 
TABS,ioos:station:wmo:42045:1,2003-03-02T10:40:00Z,26.2168,-96.4998,1008.01,11111222 
TABS,ioos:station:wmo:42045:1,2003-03-02T11:10:00Z,26.2168,-96.4998,1008.46,11111222 
TABS,ioos:station:wmo:42045:1,2003-03-02T11:40:00Z,26.2168,-96.4998,1008.52,11111222 
TABS,ioos:station:wmo:42045:1,2003-03-02T12:10:00Z,26.2168,-96.4998,1008.71,11111222 
TABS,ioos:station:wmo:42045:1,2003-03-02T12:40:00Z,26.2168,-96.4998,1008.9,11111222 
TABS,ioos:station:wmo:42045:1,2003-03-02T13:10:00Z,26.2168,-96.4998,1009.28,11111222 
TABS,ioos:station:wmo:42045:1,2003-03-02T13:40:00Z,26.2168,-96.4998,1009.98,11111222 
TABS,ioos:station:wmo:42045:1,2003-03-02T14:10:00Z,26.2168,-96.4998,1011.12,11111222 
TABS,ioos:station:wmo:42045:1,2003-03-02T14:40:00Z,26.2168,-96.4998,1012.46,11111222 
TABS,ioos:station:wmo:42045:1,2003-03-02T15:10:00Z,26.2168,-96.4998,1016.2,11111222 
TABS,ioos:station:wmo:42045:1,2003-03-02T15:40:00Z,26.2168,-96.4998,1021.91,11111222 
TABS,ioos:station:wmo:42045:1,2003-03-02T16:10:00Z,26.2168,-96.4998,1021.6,11111222 
TABS,ioos:station:wmo:42045:1,2003-03-02T16:40:00Z,26.2168,-96.4998,1017.79,11111222 
TABS,ioos:station:wmo:42045:1,2003-03-02T17:10:00Z,26.2168,-96.4998,1019.82,11111222 
TABS,ioos:station:wmo:42045:1,2003-03-02T17:40:00Z,26.2168,-96.4998,1021.47,11111222 
TABS,ioos:station:wmo:42045:1,2003-03-02T18:10:00Z,26.2168,-96.4998,1029.21,11111222 
TABS,ioos:station:wmo:42045:1,2003-03-02T18:40:00Z,26.2168,-96.4998,1029.98,11111222 
TABS,ioos:station:wmo:42045:1,2003-03-02T19:10:00Z,26.2168,-96.4998,1020.58,11111222 
TABS,ioos:station:wmo:42045:1,2003-03-02T19:40:00Z,26.2168,-96.4998,1016.96,11111222 
TABS,ioos:station:wmo:42045:1,2003-03-02T20:10:00Z,26.2168,-96.4998,1013.03,11111222 
TABS,ioos:station:wmo:42045:1,2003-03-02T20:40:00Z,26.2168,-96.4998,1009.79,11111222 
TABS,ioos:station:wmo:42045:1,2003-03-02T21:10:00Z,26.2168,-96.4998,1016.96,11111222 
TABS,ioos:station:wmo:42045:1,2003-03-02T21:40:00Z,26.2168,-96.4998,1010.74,11111222 
TABS,ioos:station:wmo:42045:1,2003-03-02T22:10:00Z,26.2168,-96.4998,1007.31,11111222 
TABS,ioos:station:wmo:42045:1,2003-03-02T22:40:00Z,26.2168,-96.4998,1005.79,11111222 
TABS,ioos:station:wmo:42045:1,2003-03-02T23:10:00Z,26.2168,-96.4998,1008.58,11111222 
TABS,ioos:station:wmo:42045:1,2003-03-02T23:40:00Z,26.2168,-96.4998,1007.5,11111222 
TABS,ioos:station:wmo:42045:1,2003-03-03T00:10:00Z,26.2168,-96.4998,1004.2,11111222 
TABS,ioos:station:wmo:42045:1,2003-03-03T00:40:00Z,26.2168,-96.4998,1003.06,11111222 
TABS,ioos:station:wmo:42045:1,2003-03-03T01:10:00Z,26.2168,-96.4998,1003.7,11111222 
TABS,ioos:station:wmo:42045:1,2003-03-03T01:40:00Z,26.2168,-96.4998,1004.33,11111222 
TABS,ioos:station:wmo:42045:1,2003-03-03T02:10:00Z,26.2168,-96.4998,1004.52,11111222 
TABS,ioos:station:wmo:42045:1,2003-03-03T02:40:00Z,26.2168,-96.4998,1004.52,11111222 
TABS,ioos:station:wmo:42045:1,2003-03-03T03:10:00Z,26.2168,-96.4998,1005.28,11111222 
TABS,ioos:station:wmo:42045:1,2003-03-03T03:40:00Z,26.2168,-96.4998,1005.98,11111222 
TABS,ioos:station:wmo:42045:1,2003-03-03T04:10:00Z,26.2168,-96.4998,1006.36,11111222 
TABS,ioos:station:wmo:42045:1,2003-03-03T04:40:00Z,26.2168,-96.4998,1006.62,11111222 
TABS,ioos:station:wmo:42045:1,2003-03-03T05:10:00Z,26.2168,-96.4998,1007.06,11111222 
TABS,ioos:station:wmo:42045:1,2003-03-03T05:40:00Z,26.2168,-96.4998,1007.38,11111222 
TABS,ioos:station:wmo:42045:1,2003-03-03T06:10:00Z,26.2168,-96.4998,1007.76,11111222 
TABS,ioos:station:wmo:42045:1,2003-03-03T06:40:00Z,26.2168,-96.4998,1007.95,11111222 
TABS,ioos:station:wmo:42045:1,2003-03-03T07:10:00Z,26.2168,-96.4998,1008.14,11111222 
TABS,ioos:station:wmo:42045:1,2003-03-03T07:40:00Z,26.2168,-96.4998,1008.2,11111222 
TABS,ioos:station:wmo:42045:1,2003-03-03T08:10:00Z,26.2168,-96.4998,1008.08,11111222 
TABS,ioos:station:wmo:42045:1,2003-03-03T08:40:00Z,26.2168,-96.4998,1008.52,11111222 
TABS,ioos:station:wmo:42045:1,2003-03-03T09:10:00Z,26.2168,-96.4998,1008.96,11111222 
TABS,ioos:station:wmo:42045:1,2003-03-03T09:40:00Z,26.2168,-96.4998,1009.09,11111222 
TABS,ioos:station:wmo:42045:1,2003-03-03T10:10:00Z,26.2168,-96.4998,1009.03,11111222 
TABS,ioos:station:wmo:42045:1,2003-03-03T10:40:00Z,26.2168,-96.4998,1008.84,11111222 
TABS,ioos:station:wmo:42045:1,2003-03-03T11:10:00Z,26.2168,-96.4998,1008.33,11111222 
TABS,ioos:station:wmo:42045:1,2003-03-03T11:40:00Z,26.2168,-96.4998,1008.46,11111222 
TABS,ioos:station:wmo:42045:1,2003-03-03T12:10:00Z,26.2168,-96.4998,1008.58,11111222 
TABS,ioos:station:wmo:42045:1,2003-03-03T12:40:00Z,26.2168,-96.4998,1008.77,11111222 
TABS,ioos:station:wmo:42045:1,2003-03-03T13:10:00Z,26.2168,-96.4998,1008.9,11111222 
TABS,ioos:station:wmo:42045:1,2003-03-03T13:40:00Z,26.2168,-96.4998,1009.35,11111222 
TABS,ioos:station:wmo:42045:1,2003-03-03T14:10:00Z,26.2168,-96.4998,1008.9,11111222 
TABS,ioos:station:wmo:42045:1,2003-03-03T14:40:00Z,26.2168,-96.4998,1008.65,11111222 
TABS,ioos:station:wmo:42045:1,2003-03-03T15:10:00Z,26.2168,-96.4998,1009.79,11111222 
TABS,ioos:station:wmo:42045:1,2003-03-03T15:40:00Z,26.2168,-96.4998,1011.25,11111222 
TABS,ioos:station:wmo:42045:1,2003-03-03T16:10:00Z,26.2168,-96.4998,1013.09,11111222 
TABS,ioos:station:wmo:42045:1,2003-03-03T16:40:00Z,26.2168,-96.4998,1012.58,11111222 
TABS,ioos:station:wmo:42045:1,2003-03-03T17:10:00Z,26.2168,-96.4998,1014.74,11111222 
TABS,ioos:station:wmo:42045:1,2003-03-03T17:40:00Z,26.2168,-96.4998,1016.01,11111222 
TABS,ioos:station:wmo:42045:1,2003-03-03T18:10:00Z,26.2168,-96.4998,1023.18,11111222 
TABS,ioos:station:wmo:42045:1,2003-03-03T18:40:00Z,26.2168,-96.4998,1016.9,11111222 
TABS,ioos:station:wmo:42045:1,2003-03-03T19:10:00Z,26.2168,-96.4998,1028.39,11111222 
TABS,ioos:station:wmo:42045:1,2003-03-03T19:40:00Z,26.2168,-96.4998,1032.9,11111222 
TABS,ioos:station:wmo:42045:1,2003-03-03T20:10:00Z,26.2168,-96.4998,1019.69,11111222 
TABS,ioos:station:wmo:42045:1,2003-03-03T20:40:00Z,26.2168,-96.4998,1015.63,11111222 
TABS,ioos:station:wmo:42045:1,2003-03-03T21:10:00Z,26.2168,-96.4998,1020.52,11111222 
TABS,ioos:station:wmo:42045:1,2003-03-03T21:40:00Z,26.2168,-96.4998,999.19,11111222 
TABS,ioos:station:wmo:42045:1,2003-03-03T22:10:00Z,26.2168,-96.4998,986.56,11111222 
TABS,ioos:station:wmo:42045:1,2003-03-03T22:40:00Z,26.2168,-96.4998,985.42,11111222 
TABS,ioos:station:wmo:42045:1,2003-03-03T23:10:00Z,26.2168,-96.4998,985.86,11111222 
TABS,ioos:station:wmo:42045:1,2003-03-03T23:40:00Z,26.2168,-96.4998,985.35,11111222 
TABS,ioos:station:wmo:42045:1,2003-03-04T00:10:00Z,26.2168,-96.4998,987.07,11111222 
TABS,ioos:station:wmo:42045:1,2003-03-04T00:40:00Z,26.2168,-96.4998,989.22,11111222 
TABS,ioos:station:wmo:42045:1,2003-03-04T01:10:00Z,26.2168,-96.4998,991.32,11111222 
TABS,ioos:station:wmo:42045:1,2003-03-04T01:40:00Z,26.2168,-96.4998,993.41,11111222 
TABS,ioos:station:wmo:42045:1,2003-03-04T02:10:00Z,26.2168,-96.4998,995.83,11111222 
TABS,ioos:station:wmo:42045:1,2003-03-04T02:40:00Z,26.2168,-96.4998,998.3,11111222 
TABS,ioos:station:wmo:42045:1,2003-03-04T03:10:00Z,26.2168,-96.4998,999.89,11111222 
TABS,ioos:station:wmo:42045:1,2003-03-04T03:40:00Z,26.2168,-96.4998,1001.35,11111222 
TABS,ioos:station:wmo:42045:1,2003-03-04T04:10:00Z,26.2168,-96.4998,1002.68,11111222 
TABS,ioos:station:wmo:42045:1,2003-03-04T04:40:00Z,26.2168,-96.4998,1004.2,11111222 
TABS,ioos:station:wmo:42045:1,2003-03-04T05:10:00Z,26.2168,-96.4998,1005.35,11111222 
TABS,ioos:station:wmo:42045:1,2003-03-04T05:40:00Z,26.2168,-96.4998,1006.49,11111222 
TABS,ioos:station:wmo:42045:1,2003-03-04T06:10:00Z,26.2168,-96.4998,1007.57,11111222 
TABS,ioos:station:wmo:42045:1,2003-03-04T06:40:00Z,26.2168,-96.4998,1008.39,11111222 
TABS,ioos:station:wmo:42045:1,2003-03-04T07:10:00Z,26.2168,-96.4998,1009.16,11111222 
TABS,ioos:station:wmo:42045:1,2003-03-04T07:40:00Z,26.2168,-96.4998,1009.66,11111222 
TABS,ioos:station:wmo:42045:1,2003-03-04T08:10:00Z,26.2168,-96.4998,1010.49,11111222 
TABS,ioos:station:wmo:42045:1,2003-03-04T08:40:00Z,26.2168,-96.4998,1010.55,11111222 
TABS,ioos:station:wmo:42045:1,2003-03-04T09:10:00Z,26.2168,-96.4998,1010.62,11111222 
TABS,ioos:station:wmo:42045:1,2003-03-04T09:40:00Z,26.2168,-96.4998,1009.92,11111222 
TABS,ioos:station:wmo:42045:1,2003-03-04T10:10:00Z,26.2168,-96.4998,1008.9,11111222 
TABS,ioos:station:wmo:42045:1,2003-03-04T10:40:00Z,26.2168,-96.4998,1008.39,11111222 
TABS,ioos:station:wmo:42045:1,2003-03-04T11:10:00Z,26.2168,-96.4998,1008.01,11111222 
TABS,ioos:station:wmo:42045:1,2003-03-04T11:40:00Z,26.2168,-96.4998,1008.52,11111222 
TABS,ioos:station:wmo:42045:1,2003-03-04T12:10:00Z,26.2168,-96.4998,1006.68,11111222 
TABS,ioos:station:wmo:42045:1,2003-03-04T12:40:00Z,26.2168,-96.4998,1006.43,11111222 
TABS,ioos:station:wmo:42045:1,2003-03-04T13:10:00Z,26.2168,-96.4998,1007.12,11111222 
TABS,ioos:station:wmo:42045:1,2003-03-04T13:40:00Z,26.2168,-96.4998,1007.82,11111222 
TABS,ioos:station:wmo:42045:1,2003-03-04T14:10:00Z,26.2168,-96.4998,1005.92,11111222 
TABS,ioos:station:wmo:42045:1,2003-03-04T14:40:00Z,26.2168,-96.4998,1008.27,11111222 
TABS,ioos:station:wmo:42045:1,2003-03-04T15:10:00Z,26.2168,-96.4998,1011.0,11111222 
TABS,ioos:station:wmo:42045:1,2003-03-04T15:40:00Z,26.2168,-96.4998,1018.04,11111222 
TABS,ioos:station:wmo:42045:1,2003-03-04T16:10:00Z,26.2168,-96.4998,1032.2,11111222 
TABS,ioos:station:wmo:42045:1,2003-03-04T16:40:00Z,26.2168,-96.4998,1022.87,11111222 
TABS,ioos:station:wmo:42045:1,2003-03-04T17:10:00Z,26.2168,-96.4998,1026.8,11111222 
TABS,ioos:station:wmo:42045:1,2003-03-04T17:40:00Z,26.2168,-96.4998,1031.37,11111222 
TABS,ioos:station:wmo:42045:1,2003-03-04T18:10:00Z,26.2168,-96.4998,1019.76,11111222 
TABS,ioos:station:wmo:42045:1,2003-03-04T18:40:00Z,26.2168,-96.4998,1016.39,11111222 
TABS,ioos:station:wmo:42045:1,2003-03-04T19:10:00Z,26.2168,-96.4998,1015.25,11111222 
TABS,ioos:station:wmo:42045:1,2003-03-04T19:40:00Z,26.2168,-96.4998,1015.38,11111222 
TABS,ioos:station:wmo:42045:1,2003-03-04T20:10:00Z,26.2168,-96.4998,1012.27,11111222 
TABS,ioos:station:wmo:42045:1,2003-03-04T20:40:00Z,26.2168,-96.4998,1012.65,11111222 
TABS,ioos:station:wmo:42045:1,2003-03-04T21:10:00Z,26.2168,-96.4998,1007.38,11111222 
TABS,ioos:station:wmo:42045:1,2003-03-04T21:40:00Z,26.2168,-96.4998,1006.24,11111222 
TABS,ioos:station:wmo:42045:1,2003-03-04T22:10:00Z,26.2168,-96.4998,1009.85,11111222 
TABS,ioos:station:wmo:42045:1,2003-03-04T22:40:00Z,26.2168,-96.4998,1015.38,11111222 
TABS,ioos:station:wmo:42045:1,2003-03-04T23:10:00Z,26.2168,-96.4998,1018.74,11111222 
TABS,ioos:station:wmo:42045:1,2003-03-04T23:40:00Z,26.2168,-96.4998,1013.66,11111222 
TABS,ioos:station:wmo:42045:1,2003-03-05T00:10:00Z,26.2168,-96.4998,999.63,11111222 
TABS,ioos:station:wmo:42045:1,2003-03-05T00:40:00Z,26.2168,-96.4998,990.81,11111222 
TABS,ioos:station:wmo:42045:1,2003-03-05T01:10:00Z,26.2168,-96.4998,989.86,11111222 
TABS,ioos:station:wmo:42045:1,2003-03-05T01:40:00Z,26.2168,-96.4998,992.27,11111222 
TABS,ioos:station:wmo:42045:1,2003-03-05T02:10:00Z,26.2168,-96.4998,993.54,11111222 
TABS,ioos:station:wmo:42045:1,2003-03-05T02:40:00Z,26.2168,-96.4998,994.56,11111222 
TABS,ioos:station:wmo:42045:1,2003-03-05T03:10:00Z,26.2168,-96.4998,995.38,11111222 
TABS,ioos:station:wmo:42045:1,2003-03-05T03:40:00Z,26.2168,-96.4998,996.65,11111222 
TABS,ioos:station:wmo:42045:1,2003-03-05T04:10:00Z,26.2168,-96.4998,997.98,11111222 
TABS,ioos:station:wmo:42045:1,2003-03-05T04:40:00Z,26.2168,-96.4998,998.24,11111222 
TABS,ioos:station:wmo:42045:1,2003-03-05T05:10:00Z,26.2168,-96.4998,998.81,11111222 
TABS,ioos:station:wmo:42045:1,2003-03-05T05:40:00Z,26.2168,-96.4998,999.89,11111222 
TABS,ioos:station:wmo:42045:1,2003-03-05T06:10:00Z,26.2168,-96.4998,1000.59,11111222 
TABS,ioos:station:wmo:42045:1,2003-03-05T06:40:00Z,26.2168,-96.4998,1001.6,11111222 
TABS,ioos:station:wmo:42045:1,2003-03-05T07:10:00Z,26.2168,-96.4998,1002.11,11111222 
TABS,ioos:station:wmo:42045:1,2003-03-05T07:40:00Z,26.2168,-96.4998,1002.43,11111222 
TABS,ioos:station:wmo:42045:1,2003-03-05T08:10:00Z,26.2168,-96.4998,1003.12,11111222 
TABS,ioos:station:wmo:42045:1,2003-03-05T08:40:00Z,26.2168,-96.4998,1003.25,11111222 
TABS,ioos:station:wmo:42045:1,2003-03-05T09:10:00Z,26.2168,-96.4998,1003.51,11111222 
TABS,ioos:station:wmo:42045:1,2003-03-05T09:40:00Z,26.2168,-96.4998,1003.76,11111222 
TABS,ioos:station:wmo:42045:1,2003-03-05T10:10:00Z,26.2168,-96.4998,1004.39,11111222 
TABS,ioos:station:wmo:42045:1,2003-03-05T10:40:00Z,26.2168,-96.4998,1004.71,11111222 
TABS,ioos:station:wmo:42045:1,2003-03-05T11:10:00Z,26.2168,-96.4998,1004.71,11111222 
TABS,ioos:station:wmo:42045:1,2003-03-05T11:40:00Z,26.2168,-96.4998,1004.9,11111222 
TABS,ioos:station:wmo:42045:1,2003-03-05T12:10:00Z,26.2168,-96.4998,1004.71,11111222 
TABS,ioos:station:wmo:42045:1,2003-03-05T12:40:00Z,26.2168,-96.4998,1004.52,11111222 
TABS,ioos:station:wmo:42045:1,2003-03-05T13:10:00Z,26.2168,-96.4998,1004.78,11111222 
TABS,ioos:station:wmo:42045:1,2003-03-05T13:40:00Z,26.2168,-96.4998,1007.19,11111222 
TABS,ioos:station:wmo:42045:1,2003-03-05T14:10:00Z,26.2168,-96.4998,1008.01,11111222 
TABS,ioos:station:wmo:42045:1,2003-03-05T14:40:00Z,26.2168,-96.4998,1009.54,11111222 
TABS,ioos:station:wmo:42045:1,2003-03-05T15:10:00Z,26.2168,-96.4998,1011.82,11111222 
TABS,ioos:station:wmo:42045:1,2003-03-05T15:40:00Z,26.2168,-96.4998,1017.6,11111222 
TABS,ioos:station:wmo:42045:1,2003-03-05T16:10:00Z,26.2168,-96.4998,1019.88,11111222 
TABS,ioos:station:wmo:42045:1,2003-03-05T16:40:00Z,26.2168,-96.4998,1022.17,11111222 
TABS,ioos:station:wmo:42045:1,2003-03-05T17:10:00Z,26.2168,-96.4998,1024.45,11111222 
TABS,ioos:station:wmo:42045:1,2003-03-05T17:40:00Z,26.2168,-96.4998,1023.37,11111222 
TABS,ioos:station:wmo:42045:1,2003-03-05T18:10:00Z,26.2168,-96.4998,1017.53,11111222 
TABS,ioos:station:wmo:42045:1,2003-03-05T18:40:00Z,26.2168,-96.4998,1014.87,11111222 
TABS,ioos:station:wmo:42045:1,2003-03-05T19:10:00Z,26.2168,-96.4998,1012.77,11111222 
TABS,ioos:station:wmo:42045:1,2003-03-05T19:40:00Z,26.2168,-96.4998,1014.17,11111222 
TABS,ioos:station:wmo:42045:1,2003-03-05T20:10:00Z,26.2168,-96.4998,1018.36,11111222 
TABS,ioos:station:wmo:42045:1,2003-03-05T20:40:00Z,26.2168,-96.4998,1013.41,11111222 
TABS,ioos:station:wmo:42045:1,2003-03-05T21:10:00Z,26.2168,-96.4998,1015.63,11111222 
TABS,ioos:station:wmo:42045:1,2003-03-05T21:40:00Z,26.2168,-96.4998,1012.77,11111222 
TABS,ioos:station:wmo:42045:1,2003-03-05T22:10:00Z,26.2168,-96.4998,1009.41,11111222 
TABS,ioos:station:wmo:42045:1,2003-03-05T22:40:00Z,26.2168,-96.4998,1003.44,11111222 
TABS,ioos:station:wmo:42045:1,2003-03-05T23:10:00Z,26.2168,-96.4998,998.75,11111222 
TABS,ioos:station:wmo:42045:1,2003-03-05T23:40:00Z,26.2168,-96.4998,995.25,11111222 
TABS,ioos:station:wmo:42045:1,2003-03-06T00:10:00Z,26.2168,-96.4998,992.97,11111222 
TABS,ioos:station:wmo:42045:1,2003-03-06T00:40:00Z,26.2168,-96.4998,991.83,11111222 
TABS,ioos:station:wmo:42045:1,2003-03-06T01:10:00Z,26.2168,-96.4998,992.46,11111222 
TABS,ioos:station:wmo:42045:1,2003-03-06T01:40:00Z,26.2168,-96.4998,993.48,11111222 
TABS,ioos:station:wmo:42045:1,2003-03-06T02:10:00Z,26.2168,-96.4998,993.98,11111222 
TABS,ioos:station:wmo:42045:1,2003-03-06T02:40:00Z,26.2168,-96.4998,995.06,11111222 
TABS,ioos:station:wmo:42045:1,2003-03-06T03:10:00Z,26.2168,-96.4998,996.52,11111222 
TABS,ioos:station:wmo:42045:1,2003-03-06T03:40:00Z,26.2168,-96.4998,997.03,11111222 
TABS,ioos:station:wmo:42045:1,2003-03-06T04:10:00Z,26.2168,-96.4998,997.79,11111222 
TABS,ioos:station:wmo:42045:1,2003-03-06T04:40:00Z,26.2168,-96.4998,998.62,11111222 
TABS,ioos:station:wmo:42045:1,2003-03-06T05:10:00Z,26.2168,-96.4998,998.94,11111222 
TABS,ioos:station:wmo:42045:1,2003-03-06T05:40:00Z,26.2168,-96.4998,999.82,11111222 
TABS,ioos:station:wmo:42045:1,2003-03-06T06:10:00Z,26.2168,-96.4998,1000.08,11111222 
TABS,ioos:station:wmo:42045:1,2003-03-06T06:40:00Z,26.2168,-96.4998,1000.14,11111222 
TABS,ioos:station:wmo:42045:1,2003-03-06T07:10:00Z,26.2168,-96.4998,1000.78,11111222 
TABS,ioos:station:wmo:42045:1,2003-03-06T07:40:00Z,26.2168,-96.4998,1001.16,11111222 
TABS,ioos:station:wmo:42045:1,2003-03-06T08:10:00Z,26.2168,-96.4998,1001.86,11111222 
TABS,ioos:station:wmo:42045:1,2003-03-06T08:40:00Z,26.2168,-96.4998,1002.43,11111222 
TABS,ioos:station:wmo:42045:1,2003-03-06T09:10:00Z,26.2168,-96.4998,999.0,11111222 
TABS,ioos:station:wmo:42045:1,2003-03-06T09:40:00Z,26.2168,-96.4998,997.67,11111222 
TABS,ioos:station:wmo:42045:1,2003-03-06T10:10:00Z,26.2168,-96.4998,998.05,11111222 
TABS,ioos:station:wmo:42045:1,2003-03-06T10:40:00Z,26.2168,-96.4998,998.75,11111222 
TABS,ioos:station:wmo:42045:1,2003-03-06T11:10:00Z,26.2168,-96.4998,999.25,11111222 
TABS,ioos:station:wmo:42045:1,2003-03-06T11:40:00Z,26.2168,-96.4998,1000.01,11111222 
TABS,ioos:station:wmo:42045:1,2003-03-06T12:10:00Z,26.2168,-96.4998,1001.28,11111222 
TABS,ioos:station:wmo:42045:1,2003-03-06T12:40:00Z,26.2168,-96.4998,1002.62,11111222 
TABS,ioos:station:wmo:42045:1,2003-03-06T13:10:00Z,26.2168,-96.4998,1003.44,11111222 
TABS,ioos:station:wmo:42045:1,2003-03-06T13:40:00Z,26.2168,-96.4998,1004.27,11111222 
TABS,ioos:station:wmo:42045:1,2003-03-06T14:10:00Z,26.2168,-96.4998,1005.09,11111222 
TABS,ioos:station:wmo:42045:1,2003-03-06T14:40:00Z,26.2168,-96.4998,1005.79,11111222 
TABS,ioos:station:wmo:42045:1,2003-03-06T15:10:00Z,26.2168,-96.4998,1006.3,11111222 
TABS,ioos:station:wmo:42045:1,2003-03-06T15:40:00Z,26.2168,-96.4998,1007.19,11111222 
TABS,ioos:station:wmo:42045:1,2003-03-06T16:10:00Z,26.2168,-96.4998,1007.63,11111222 
TABS,ioos:station:wmo:42045:1,2003-03-06T16:40:00Z,26.2168,-96.4998,1007.25,11111222 
TABS,ioos:station:wmo:42045:1,2003-03-06T17:10:00Z,26.2168,-96.4998,1007.19,11111222 
TABS,ioos:station:wmo:42045:1,2003-03-06T17:40:00Z,26.2168,-96.4998,1006.55,11111222 
TABS,ioos:station:wmo:42045:1,2003-03-06T18:10:00Z,26.2168,-96.4998,1006.68,11111222 
TABS,ioos:station:wmo:42045:1,2003-03-06T19:10:00Z,26.2168,-96.4998,1006.68,11111222 
TABS,ioos:station:wmo:42045:1,2003-03-06T19:40:00Z,26.2168,-96.4998,1006.3,11111222 